Year,Month,Day,Hour,Minute,Value (Times are PST for temperature in C)
2015,06,16,00,00,14.10
2015,06,16,00,01,14.10
2015,06,16,00,02,14.10
2015,06,16,00,03,14.10
2015,06,16,00,04,14.00
2015,06,16,00,05,14.00
2015,06,16,00,06,14.00
2015,06,16,00,07,14.00
2015,06,16,00,08,13.90
2015,06,16,00,09,13.90
2015,06,16,00,10,13.90
2015,06,16,00,11,13.90
2015,06,16,00,12,13.80
2015,06,16,00,13,13.80
2015,06,16,00,14,13.80
2015,06,16,00,15,13.80
2015,06,16,00,16,13.80
2015,06,16,00,17,13.70
2015,06,16,00,18,13.70
2015,06,16,00,19,13.70
2015,06,16,00,20,13.70
2015,06,16,00,21,13.70
2015,06,16,00,22,13.70
2015,06,16,00,23,13.70
2015,06,16,00,24,13.70
2015,06,16,00,25,13.70
2015,06,16,00,26,13.60
2015,06,16,00,27,13.60
2015,06,16,00,28,13.60
2015,06,16,00,29,13.50
2015,06,16,00,30,13.50
2015,06,16,00,31,13.50
2015,06,16,00,32,13.40
2015,06,16,00,33,13.40
2015,06,16,00,34,13.40
2015,06,16,00,35,13.40
2015,06,16,00,36,13.30
2015,06,16,00,37,13.30
2015,06,16,00,38,13.30
2015,06,16,00,39,13.30
2015,06,16,00,40,13.20
2015,06,16,00,41,13.20
2015,06,16,00,42,13.20
2015,06,16,00,43,13.10
2015,06,16,00,44,13.10
2015,06,16,00,45,13.00
2015,06,16,00,46,13.00
2015,06,16,00,47,12.90
2015,06,16,00,48,12.90
2015,06,16,00,49,12.90
2015,06,16,00,50,12.90
2015,06,16,00,51,12.90
2015,06,16,00,52,13.00
2015,06,16,00,53,13.00
2015,06,16,00,54,13.00
2015,06,16,00,55,12.90
2015,06,16,00,56,12.90
2015,06,16,00,57,12.90
2015,06,16,00,58,12.80
2015,06,16,00,59,12.80
2015,06,16,01,00,12.80
2015,06,16,01,01,12.80
2015,06,16,01,02,12.80
2015,06,16,01,03,12.80
2015,06,16,01,04,12.80
2015,06,16,01,05,12.80
2015,06,16,01,06,12.80
2015,06,16,01,07,12.80
2015,06,16,01,08,12.70
2015,06,16,01,09,12.70
2015,06,16,01,10,12.70
2015,06,16,01,11,12.70
2015,06,16,01,12,12.60
2015,06,16,01,13,12.60
2015,06,16,01,14,12.60
2015,06,16,01,15,12.60
2015,06,16,01,16,12.60
2015,06,16,01,17,12.50
2015,06,16,01,18,12.50
2015,06,16,01,19,12.40
2015,06,16,01,20,12.40
2015,06,16,01,21,12.40
2015,06,16,01,22,12.40
2015,06,16,01,23,12.40
2015,06,16,01,24,12.30
2015,06,16,01,25,12.30
2015,06,16,01,26,12.30
2015,06,16,01,27,12.30
2015,06,16,01,28,12.30
2015,06,16,01,29,12.30
2015,06,16,01,30,12.30
2015,06,16,01,31,12.30
2015,06,16,01,32,12.30
2015,06,16,01,33,12.30
2015,06,16,01,34,12.30
2015,06,16,01,35,12.30
2015,06,16,01,36,12.30
2015,06,16,01,37,12.30
2015,06,16,01,38,12.30
2015,06,16,01,39,12.30
2015,06,16,01,40,12.30
2015,06,16,01,41,12.30
2015,06,16,01,42,12.30
2015,06,16,01,43,12.30
2015,06,16,01,44,12.30
2015,06,16,01,45,12.30
2015,06,16,01,46,12.30
2015,06,16,01,47,12.30
2015,06,16,01,48,12.30
2015,06,16,01,49,12.30
2015,06,16,01,50,12.30
2015,06,16,01,51,12.30
2015,06,16,01,52,12.30
2015,06,16,01,53,12.30
2015,06,16,01,54,12.30
2015,06,16,01,55,12.30
2015,06,16,01,56,12.30
2015,06,16,01,57,12.30
2015,06,16,01,58,12.30
2015,06,16,01,59,12.30
2015,06,16,02,00,12.20
2015,06,16,02,01,12.20
2015,06,16,02,02,12.20
2015,06,16,02,03,12.20
2015,06,16,02,04,12.20
2015,06,16,02,05,12.20
2015,06,16,02,06,12.20
2015,06,16,02,07,12.20
2015,06,16,02,08,12.10
2015,06,16,02,09,12.10
2015,06,16,02,10,12.10
2015,06,16,02,11,12.10
2015,06,16,02,12,12.10
2015,06,16,02,13,12.00
2015,06,16,02,14,12.00
2015,06,16,02,15,11.90
2015,06,16,02,16,11.90
2015,06,16,02,17,11.90
2015,06,16,02,18,11.90
2015,06,16,02,19,11.90
2015,06,16,02,20,11.80
2015,06,16,02,21,11.80
2015,06,16,02,22,11.80
2015,06,16,02,23,11.80
2015,06,16,02,24,11.80
2015,06,16,02,25,11.70
2015,06,16,02,26,11.70
2015,06,16,02,27,11.70
2015,06,16,02,28,11.70
2015,06,16,02,29,11.60
2015,06,16,02,30,11.60
2015,06,16,02,31,11.60
2015,06,16,02,32,11.50
2015,06,16,02,33,11.50
2015,06,16,02,34,11.50
2015,06,16,02,35,11.40
2015,06,16,02,36,11.40
2015,06,16,02,37,11.30
2015,06,16,02,38,11.30
2015,06,16,02,39,11.30
2015,06,16,02,40,11.30
2015,06,16,02,41,11.30
2015,06,16,02,42,11.20
2015,06,16,02,43,11.20
2015,06,16,02,44,11.20
2015,06,16,02,45,11.20
2015,06,16,02,46,11.20
2015,06,16,02,47,11.10
2015,06,16,02,48,11.10
2015,06,16,02,49,11.10
2015,06,16,02,50,11.10
2015,06,16,02,51,11.00
2015,06,16,02,52,11.00
2015,06,16,02,53,11.00
2015,06,16,02,54,10.90
2015,06,16,02,55,10.90
2015,06,16,02,56,10.90
2015,06,16,02,57,10.90
2015,06,16,02,58,10.80
2015,06,16,02,59,10.80
2015,06,16,03,00,10.80
2015,06,16,03,01,10.80
2015,06,16,03,02,10.80
2015,06,16,03,03,10.70
2015,06,16,03,04,10.70
2015,06,16,03,05,10.70
2015,06,16,03,06,10.70
2015,06,16,03,07,10.60
2015,06,16,03,08,10.60
2015,06,16,03,09,10.60
2015,06,16,03,10,10.60
2015,06,16,03,11,10.60
2015,06,16,03,12,10.60
2015,06,16,03,13,10.60
2015,06,16,03,14,10.50
2015,06,16,03,15,10.50
2015,06,16,03,16,10.50
2015,06,16,03,17,10.50
2015,06,16,03,18,10.40
2015,06,16,03,19,10.40
2015,06,16,03,20,10.40
2015,06,16,03,21,10.40
2015,06,16,03,22,10.40
2015,06,16,03,23,10.40
2015,06,16,03,24,10.30
2015,06,16,03,25,10.30
2015,06,16,03,26,10.30
2015,06,16,03,27,10.30
2015,06,16,03,28,10.30
2015,06,16,03,29,10.30
2015,06,16,03,30,10.30
2015,06,16,03,31,10.20
2015,06,16,03,32,10.20
2015,06,16,03,33,10.20
2015,06,16,03,34,10.20
2015,06,16,03,35,10.20
2015,06,16,03,36,10.10
2015,06,16,03,37,10.10
2015,06,16,03,38,10.10
2015,06,16,03,39,10.10
2015,06,16,03,40,10.00
2015,06,16,03,41,10.00
2015,06,16,03,42,10.00
2015,06,16,03,43,10.00
2015,06,16,03,44,9.90
2015,06,16,03,45,9.90
2015,06,16,03,46,9.90
2015,06,16,03,47,9.90
2015,06,16,03,48,9.90
2015,06,16,03,49,9.90
2015,06,16,03,50,9.90
2015,06,16,03,51,9.90
2015,06,16,03,52,9.90
2015,06,16,03,53,9.90
2015,06,16,03,54,9.80
2015,06,16,03,55,9.80
2015,06,16,03,56,9.80
2015,06,16,03,57,9.80
2015,06,16,03,58,9.80
2015,06,16,03,59,9.80
2015,06,16,04,00,9.70
2015,06,16,04,01,9.70
2015,06,16,04,02,9.70
2015,06,16,04,03,9.70
2015,06,16,04,04,9.70
2015,06,16,04,05,9.70
2015,06,16,04,06,9.70
2015,06,16,04,07,9.70
2015,06,16,04,08,9.70
2015,06,16,04,09,9.70
2015,06,16,04,10,9.70
2015,06,16,04,11,9.60
2015,06,16,04,12,9.60
2015,06,16,04,13,9.60
2015,06,16,04,14,9.60
2015,06,16,04,15,9.60
2015,06,16,04,16,9.60
2015,06,16,04,17,9.60
2015,06,16,04,18,9.60
2015,06,16,04,19,9.60
2015,06,16,04,20,9.60
2015,06,16,04,21,9.60
2015,06,16,04,22,9.60
2015,06,16,04,23,9.60
2015,06,16,04,24,9.60
2015,06,16,04,25,9.60
2015,06,16,04,26,9.60
2015,06,16,04,27,9.50
2015,06,16,04,28,9.50
2015,06,16,04,29,9.50
2015,06,16,04,30,9.50
2015,06,16,04,31,9.50
2015,06,16,04,32,9.40
2015,06,16,04,33,9.40
2015,06,16,04,34,9.40
2015,06,16,04,35,9.40
2015,06,16,04,36,9.40
2015,06,16,04,37,9.40
2015,06,16,04,38,9.40
2015,06,16,04,39,9.30
2015,06,16,04,40,9.30
2015,06,16,04,41,9.30
2015,06,16,04,42,9.30
2015,06,16,04,43,9.30
2015,06,16,04,44,9.30
2015,06,16,04,45,9.30
2015,06,16,04,46,9.30
2015,06,16,04,47,9.30
2015,06,16,04,48,9.30
2015,06,16,04,49,9.30
2015,06,16,04,50,9.30
2015,06,16,04,51,9.30
2015,06,16,04,52,9.30
2015,06,16,04,53,9.30
2015,06,16,04,54,9.30
2015,06,16,04,55,9.30
2015,06,16,04,56,9.30
2015,06,16,04,57,9.40
2015,06,16,04,58,9.40
2015,06,16,04,59,9.40
2015,06,16,05,00,9.40
2015,06,16,05,01,9.40
2015,06,16,05,02,9.40
2015,06,16,05,03,9.40
2015,06,16,05,04,9.40
2015,06,16,05,05,9.40
2015,06,16,05,06,9.40
2015,06,16,05,07,9.40
2015,06,16,05,08,9.50
2015,06,16,05,09,9.50
2015,06,16,05,10,9.60
2015,06,16,05,11,9.60
2015,06,16,05,12,9.60
2015,06,16,05,13,9.70
2015,06,16,05,14,9.70
2015,06,16,05,15,9.80
2015,06,16,05,16,9.80
2015,06,16,05,17,9.80
2015,06,16,05,18,9.80
2015,06,16,05,19,9.80
2015,06,16,05,20,9.80
2015,06,16,05,21,9.80
2015,06,16,05,22,9.80
2015,06,16,05,23,9.80
2015,06,16,05,24,9.80
2015,06,16,05,25,9.80
2015,06,16,05,26,9.80
2015,06,16,05,27,9.80
2015,06,16,05,28,9.80
2015,06,16,05,29,9.80
2015,06,16,05,30,9.70
2015,06,16,05,31,9.70
2015,06,16,05,32,9.70
2015,06,16,05,33,9.70
2015,06,16,05,34,9.70
2015,06,16,05,35,9.70
2015,06,16,05,36,9.70
2015,06,16,05,37,9.70
2015,06,16,05,38,9.70
2015,06,16,05,39,9.70
2015,06,16,05,40,9.70
2015,06,16,05,41,9.70
2015,06,16,05,42,9.70
2015,06,16,05,43,9.70
2015,06,16,05,44,9.80
2015,06,16,05,45,9.80
2015,06,16,05,46,9.80
2015,06,16,05,47,9.90
2015,06,16,05,48,9.90
2015,06,16,05,49,10.00
2015,06,16,05,50,10.00
2015,06,16,05,51,10.10
2015,06,16,05,52,10.10
2015,06,16,05,53,10.10
2015,06,16,05,54,10.20
2015,06,16,05,55,10.20
2015,06,16,05,56,10.20
2015,06,16,05,57,10.30
2015,06,16,05,58,10.30
2015,06,16,05,59,10.30
2015,06,16,06,00,10.30
2015,06,16,06,01,10.40
2015,06,16,06,02,10.40
2015,06,16,06,03,10.40
2015,06,16,06,04,10.40
2015,06,16,06,05,10.40
2015,06,16,06,06,10.40
2015,06,16,06,07,10.40
2015,06,16,06,08,10.40
2015,06,16,06,09,10.40
2015,06,16,06,10,10.40
2015,06,16,06,11,10.40
2015,06,16,06,12,10.40
2015,06,16,06,13,10.40
2015,06,16,06,14,10.40
2015,06,16,06,15,10.40
2015,06,16,06,16,10.40
2015,06,16,06,17,10.50
2015,06,16,06,18,10.50
2015,06,16,06,19,10.50
2015,06,16,06,20,10.60
2015,06,16,06,21,10.60
2015,06,16,06,22,10.60
2015,06,16,06,23,10.60
2015,06,16,06,24,10.60
2015,06,16,06,25,10.70
2015,06,16,06,26,10.70
2015,06,16,06,27,10.70
2015,06,16,06,28,10.70
2015,06,16,06,29,10.70
2015,06,16,06,30,10.80
2015,06,16,06,31,10.80
2015,06,16,06,32,10.90
2015,06,16,06,33,10.90
2015,06,16,06,34,10.90
2015,06,16,06,35,11.00
2015,06,16,06,36,11.00
2015,06,16,06,37,11.10
2015,06,16,06,38,11.10
2015,06,16,06,39,11.10
2015,06,16,06,40,11.20
2015,06,16,06,41,11.20
2015,06,16,06,42,11.20
2015,06,16,06,43,11.20
2015,06,16,06,44,11.30
2015,06,16,06,45,11.30
2015,06,16,06,46,11.30
2015,06,16,06,47,11.40
2015,06,16,06,48,11.40
2015,06,16,06,49,11.40
2015,06,16,06,50,11.50
2015,06,16,06,51,11.50
2015,06,16,06,52,11.60
2015,06,16,06,53,11.70
2015,06,16,06,54,11.70
2015,06,16,06,55,11.80
2015,06,16,06,56,11.80
2015,06,16,06,57,11.80
2015,06,16,06,58,11.90
2015,06,16,06,59,11.90
2015,06,16,07,00,12.00
2015,06,16,07,01,12.10
2015,06,16,07,02,12.10
2015,06,16,07,03,12.20
2015,06,16,07,04,12.20
2015,06,16,07,05,12.30
2015,06,16,07,06,12.30
2015,06,16,07,07,12.30
2015,06,16,07,08,12.40
2015,06,16,07,09,12.40
2015,06,16,07,10,12.50
2015,06,16,07,11,12.50
2015,06,16,07,12,12.60
2015,06,16,07,13,12.60
2015,06,16,07,14,12.70
2015,06,16,07,15,12.70
2015,06,16,07,16,12.80
2015,06,16,07,17,12.90
2015,06,16,07,18,12.90
2015,06,16,07,19,13.00
2015,06,16,07,20,13.00
2015,06,16,07,21,13.10
2015,06,16,07,22,13.10
2015,06,16,07,23,13.10
2015,06,16,07,24,13.20
2015,06,16,07,25,13.20
2015,06,16,07,26,13.30
2015,06,16,07,27,13.40
2015,06,16,07,28,13.50
2015,06,16,07,29,13.50
2015,06,16,07,30,13.60
2015,06,16,07,31,13.70
2015,06,16,07,32,13.80
2015,06,16,07,33,13.80
2015,06,16,07,34,13.90
2015,06,16,07,35,14.00
2015,06,16,07,36,14.00
2015,06,16,07,37,14.10
2015,06,16,07,38,14.20
2015,06,16,07,39,14.20
2015,06,16,07,40,14.30
2015,06,16,07,41,14.30
2015,06,16,07,42,14.40
2015,06,16,07,43,14.50
2015,06,16,07,44,14.50
2015,06,16,07,45,14.60
2015,06,16,07,46,14.70
2015,06,16,07,47,14.70
2015,06,16,07,48,14.80
2015,06,16,07,49,14.90
2015,06,16,07,50,14.90
2015,06,16,07,51,15.00
2015,06,16,07,52,15.00
2015,06,16,07,53,15.00
2015,06,16,07,54,15.10
2015,06,16,07,55,15.20
2015,06,16,07,56,15.20
2015,06,16,07,57,15.30
2015,06,16,07,58,15.40
2015,06,16,07,59,15.40
2015,06,16,08,00,15.50
2015,06,16,08,01,15.60
2015,06,16,08,02,15.70
2015,06,16,08,03,15.80
2015,06,16,08,04,15.80
2015,06,16,08,05,15.80
2015,06,16,08,06,15.80
2015,06,16,08,07,15.90
2015,06,16,08,08,15.90
2015,06,16,08,09,15.90
2015,06,16,08,10,16.10
2015,06,16,08,11,16.10
2015,06,16,08,12,16.20
2015,06,16,08,13,16.30
2015,06,16,08,14,16.40
2015,06,16,08,15,16.50
2015,06,16,08,16,16.60
2015,06,16,08,17,16.70
2015,06,16,08,18,16.90
2015,06,16,08,19,17.00
2015,06,16,08,20,17.10
2015,06,16,08,21,17.20
2015,06,16,08,22,17.30
2015,06,16,08,23,17.40
2015,06,16,08,24,17.60
2015,06,16,08,25,17.70
2015,06,16,08,26,17.80
2015,06,16,08,27,17.80
2015,06,16,08,28,17.90
2015,06,16,08,29,18.00
2015,06,16,08,30,18.00
2015,06,16,08,31,18.10
2015,06,16,08,32,18.20
2015,06,16,08,33,18.30
2015,06,16,08,34,18.40
2015,06,16,08,35,18.50
2015,06,16,08,36,18.60
2015,06,16,08,37,18.70
2015,06,16,08,38,18.80
2015,06,16,08,39,18.80
2015,06,16,08,40,18.80
2015,06,16,08,41,18.90
2015,06,16,08,42,18.90
2015,06,16,08,43,18.90
2015,06,16,08,44,19.00
2015,06,16,08,45,19.00
2015,06,16,08,46,18.90
2015,06,16,08,47,18.90
2015,06,16,08,48,18.90
2015,06,16,08,49,18.90
2015,06,16,08,50,18.90
2015,06,16,08,51,18.90
2015,06,16,08,52,18.90
2015,06,16,08,53,18.80
2015,06,16,08,54,18.70
2015,06,16,08,55,18.70
2015,06,16,08,56,18.70
2015,06,16,08,57,18.70
2015,06,16,08,58,18.70
2015,06,16,08,59,18.60
2015,06,16,09,00,18.50
2015,06,16,09,01,18.40
2015,06,16,09,02,18.40
2015,06,16,09,03,18.30
2015,06,16,09,04,18.30
2015,06,16,09,05,18.30
2015,06,16,09,06,18.40
2015,06,16,09,07,18.50
2015,06,16,09,08,18.50
2015,06,16,09,09,18.60
2015,06,16,09,10,18.80
2015,06,16,09,11,18.90
2015,06,16,09,12,19.00
2015,06,16,09,13,19.20
2015,06,16,09,14,19.30
2015,06,16,09,15,19.40
2015,06,16,09,16,19.50
2015,06,16,09,17,19.70
2015,06,16,09,18,19.70
2015,06,16,09,19,19.70
2015,06,16,09,20,19.70
2015,06,16,09,21,19.70
2015,06,16,09,22,19.70
2015,06,16,09,23,19.60
2015,06,16,09,24,19.60
2015,06,16,09,25,19.40
2015,06,16,09,26,19.30
2015,06,16,09,27,19.20
2015,06,16,09,28,19.10
2015,06,16,09,29,19.10
2015,06,16,09,30,19.10
2015,06,16,09,31,19.10
2015,06,16,09,32,19.10
2015,06,16,09,33,19.10
2015,06,16,09,34,19.10
2015,06,16,09,35,19.20
2015,06,16,09,36,19.20
2015,06,16,09,37,19.20
2015,06,16,09,38,19.30
2015,06,16,09,39,19.30
2015,06,16,09,40,19.30
2015,06,16,09,41,19.30
2015,06,16,09,42,19.30
2015,06,16,09,43,19.40
2015,06,16,09,44,19.40
2015,06,16,09,45,19.50
2015,06,16,09,46,19.50
2015,06,16,09,47,19.50
2015,06,16,09,48,19.40
2015,06,16,09,49,19.40
2015,06,16,09,50,19.50
2015,06,16,09,51,19.60
2015,06,16,09,52,19.70
2015,06,16,09,53,19.70
2015,06,16,09,54,19.80
2015,06,16,09,55,19.80
2015,06,16,09,56,19.80
2015,06,16,09,57,19.90
2015,06,16,09,58,20.00
2015,06,16,09,59,20.10
2015,06,16,10,00,20.00
2015,06,16,10,01,20.00
2015,06,16,10,02,19.90
2015,06,16,10,03,19.90
2015,06,16,10,04,19.90
2015,06,16,10,05,20.00
2015,06,16,10,06,20.00
2015,06,16,10,07,20.00
2015,06,16,10,08,19.90
2015,06,16,10,09,20.00
2015,06,16,10,10,20.00
2015,06,16,10,11,20.10
2015,06,16,10,12,20.10
2015,06,16,10,13,20.10
2015,06,16,10,14,20.10
2015,06,16,10,15,20.20
2015,06,16,10,16,20.40
2015,06,16,10,17,20.40
2015,06,16,10,18,20.40
2015,06,16,10,19,20.30
2015,06,16,10,20,20.40
2015,06,16,10,21,20.40
2015,06,16,10,22,20.40
2015,06,16,10,23,20.40
2015,06,16,10,24,20.40
2015,06,16,10,25,20.40
2015,06,16,10,26,20.40
2015,06,16,10,27,20.30
2015,06,16,10,28,20.20
2015,06,16,10,29,20.10
2015,06,16,10,30,20.10
2015,06,16,10,31,20.10
2015,06,16,10,32,20.10
2015,06,16,10,33,20.10
2015,06,16,10,34,20.10
2015,06,16,10,35,20.10
2015,06,16,10,36,20.20
2015,06,16,10,37,20.20
2015,06,16,10,38,20.20
2015,06,16,10,39,20.30
2015,06,16,10,40,20.30
2015,06,16,10,41,20.40
2015,06,16,10,42,20.40
2015,06,16,10,43,20.40
2015,06,16,10,44,20.40
2015,06,16,10,45,20.50
2015,06,16,10,46,20.50
2015,06,16,10,47,20.40
2015,06,16,10,48,20.40
2015,06,16,10,49,20.30
2015,06,16,10,50,20.20
2015,06,16,10,51,20.20
2015,06,16,10,52,20.20
2015,06,16,10,53,20.30
2015,06,16,10,54,20.30
2015,06,16,10,55,20.20
2015,06,16,10,56,20.20
2015,06,16,10,57,20.30
2015,06,16,10,58,20.40
2015,06,16,10,59,20.50
2015,06,16,11,00,20.60
2015,06,16,11,01,20.60
2015,06,16,11,02,20.70
2015,06,16,11,03,20.80
2015,06,16,11,04,20.90
2015,06,16,11,05,20.90
2015,06,16,11,06,21.00
2015,06,16,11,07,20.90
2015,06,16,11,08,20.80
2015,06,16,11,09,20.90
2015,06,16,11,10,20.90
2015,06,16,11,11,21.00
2015,06,16,11,12,21.10
2015,06,16,11,13,21.20
2015,06,16,11,14,21.30
2015,06,16,11,15,21.40
2015,06,16,11,16,21.50
2015,06,16,11,17,21.60
2015,06,16,11,18,21.70
2015,06,16,11,19,21.80
2015,06,16,11,20,21.90
2015,06,16,11,21,22.00
2015,06,16,11,22,22.10
2015,06,16,11,23,22.00
2015,06,16,11,24,22.00
2015,06,16,11,25,21.90
2015,06,16,11,26,21.90
2015,06,16,11,27,22.00
2015,06,16,11,28,22.10
2015,06,16,11,29,22.20
2015,06,16,11,30,22.10
2015,06,16,11,31,22.00
2015,06,16,11,32,21.90
2015,06,16,11,33,21.90
2015,06,16,11,34,21.90
2015,06,16,11,35,21.90
2015,06,16,11,36,22.00
2015,06,16,11,37,22.10
2015,06,16,11,38,22.10
2015,06,16,11,39,22.10
2015,06,16,11,40,22.10
2015,06,16,11,41,22.20
2015,06,16,11,42,22.20
2015,06,16,11,43,22.30
2015,06,16,11,44,22.40
2015,06,16,11,45,22.40
2015,06,16,11,46,22.30
2015,06,16,11,47,22.30
2015,06,16,11,48,22.20
2015,06,16,11,49,22.20
2015,06,16,11,50,22.10
2015,06,16,11,51,22.10
2015,06,16,11,52,22.10
2015,06,16,11,53,22.10
2015,06,16,11,54,22.00
2015,06,16,11,55,22.00
2015,06,16,11,56,22.10
2015,06,16,11,57,22.20
2015,06,16,11,58,22.30
2015,06,16,11,59,22.40
2015,06,16,12,00,22.40
2015,06,16,12,01,22.40
2015,06,16,12,02,22.30
2015,06,16,12,03,22.30
2015,06,16,12,04,22.20
2015,06,16,12,05,22.20
2015,06,16,12,06,22.20
2015,06,16,12,07,22.20
2015,06,16,12,08,22.20
2015,06,16,12,09,22.20
2015,06,16,12,10,22.20
2015,06,16,12,11,22.20
2015,06,16,12,12,22.30
2015,06,16,12,13,22.40
2015,06,16,12,14,22.40
2015,06,16,12,15,22.50
2015,06,16,12,16,22.60
2015,06,16,12,17,22.50
2015,06,16,12,18,22.50
2015,06,16,12,19,22.50
2015,06,16,12,20,22.50
2015,06,16,12,21,22.60
2015,06,16,12,22,22.60
2015,06,16,12,23,22.70
2015,06,16,12,24,22.70
2015,06,16,12,25,22.70
2015,06,16,12,26,22.80
2015,06,16,12,27,22.80
2015,06,16,12,28,23.00
2015,06,16,12,29,23.10
2015,06,16,12,30,23.10
2015,06,16,12,31,23.10
2015,06,16,12,32,23.20
2015,06,16,12,33,23.20
2015,06,16,12,34,23.20
2015,06,16,12,35,23.10
2015,06,16,12,36,23.00
2015,06,16,12,37,22.90
2015,06,16,12,38,22.90
2015,06,16,12,39,22.90
2015,06,16,12,40,22.90
2015,06,16,12,41,22.80
2015,06,16,12,42,22.80
2015,06,16,12,43,22.70
2015,06,16,12,44,22.60
2015,06,16,12,45,22.50
2015,06,16,12,46,22.50
2015,06,16,12,47,22.40
2015,06,16,12,48,22.40
2015,06,16,12,49,22.30
2015,06,16,12,50,22.30
2015,06,16,12,51,22.30
2015,06,16,12,52,22.40
2015,06,16,12,53,22.40
2015,06,16,12,54,22.40
2015,06,16,12,55,22.40
2015,06,16,12,56,22.30
2015,06,16,12,57,22.30
2015,06,16,12,58,22.30
2015,06,16,12,59,22.30
2015,06,16,13,00,22.30
2015,06,16,13,01,22.30
2015,06,16,13,02,22.30
2015,06,16,13,03,22.30
2015,06,16,13,04,22.30
2015,06,16,13,05,22.30
2015,06,16,13,06,22.30
2015,06,16,13,07,22.30
2015,06,16,13,08,22.30
2015,06,16,13,09,22.30
2015,06,16,13,10,22.40
2015,06,16,13,11,22.50
2015,06,16,13,12,22.50
2015,06,16,13,13,22.60
2015,06,16,13,14,22.70
2015,06,16,13,15,22.70
2015,06,16,13,16,22.70
2015,06,16,13,17,22.70
2015,06,16,13,18,22.70
2015,06,16,13,19,22.70
2015,06,16,13,20,22.70
2015,06,16,13,21,22.70
2015,06,16,13,22,22.70
2015,06,16,13,23,22.70
2015,06,16,13,24,22.70
2015,06,16,13,25,22.70
2015,06,16,13,26,22.70
2015,06,16,13,27,22.70
2015,06,16,13,28,22.70
2015,06,16,13,29,22.80
2015,06,16,13,30,22.80
2015,06,16,13,31,22.80
2015,06,16,13,32,22.80
2015,06,16,13,33,22.80
2015,06,16,13,34,22.80
2015,06,16,13,35,22.90
2015,06,16,13,36,22.90
2015,06,16,13,37,22.80
2015,06,16,13,38,22.80
2015,06,16,13,39,22.70
2015,06,16,13,40,22.60
2015,06,16,13,41,22.50
2015,06,16,13,42,22.40
2015,06,16,13,43,22.40
2015,06,16,13,44,22.30
2015,06,16,13,45,22.30
2015,06,16,13,46,22.40
2015,06,16,13,47,22.40
2015,06,16,13,48,22.40
2015,06,16,13,49,22.50
2015,06,16,13,50,22.60
2015,06,16,13,51,22.60
2015,06,16,13,52,22.60
2015,06,16,13,53,22.50
2015,06,16,13,54,22.50
2015,06,16,13,55,22.50
2015,06,16,13,56,22.50
2015,06,16,13,57,22.50
2015,06,16,13,58,22.60
2015,06,16,13,59,22.60
2015,06,16,14,00,22.60
2015,06,16,14,01,22.70
2015,06,16,14,02,22.70
2015,06,16,14,03,22.70
2015,06,16,14,04,22.70
2015,06,16,14,05,22.70
2015,06,16,14,06,22.70
2015,06,16,14,07,22.80
2015,06,16,14,08,22.90
2015,06,16,14,09,22.90
2015,06,16,14,10,23.00
2015,06,16,14,11,23.00
2015,06,16,14,12,23.10
2015,06,16,14,13,23.10
2015,06,16,14,14,23.10
2015,06,16,14,15,23.10
2015,06,16,14,16,23.20
2015,06,16,14,17,23.20
2015,06,16,14,18,23.20
2015,06,16,14,19,23.20
2015,06,16,14,20,23.20
2015,06,16,14,21,23.20
2015,06,16,14,22,23.20
2015,06,16,14,23,23.20
2015,06,16,14,24,23.20
2015,06,16,14,25,23.20
2015,06,16,14,26,23.20
2015,06,16,14,27,23.10
2015,06,16,14,28,23.00
2015,06,16,14,29,22.90
2015,06,16,14,30,22.80
2015,06,16,14,31,22.70
2015,06,16,14,32,22.70
2015,06,16,14,33,22.70
2015,06,16,14,34,22.70
2015,06,16,14,35,22.70
2015,06,16,14,36,22.80
2015,06,16,14,37,22.80
2015,06,16,14,38,22.80
2015,06,16,14,39,22.80
2015,06,16,14,40,22.90
2015,06,16,14,41,22.90
2015,06,16,14,42,22.90
2015,06,16,14,43,22.90
2015,06,16,14,44,22.90
2015,06,16,14,45,23.00
2015,06,16,14,46,23.10
2015,06,16,14,47,23.20
2015,06,16,14,48,23.30
2015,06,16,14,49,23.30
2015,06,16,14,50,23.40
2015,06,16,14,51,23.40
2015,06,16,14,52,23.50
2015,06,16,14,53,23.50
2015,06,16,14,54,23.60
2015,06,16,14,55,23.60
2015,06,16,14,56,23.60
2015,06,16,14,57,23.50
2015,06,16,14,58,23.50
2015,06,16,14,59,23.40
2015,06,16,15,00,23.40
2015,06,16,15,01,23.40
2015,06,16,15,02,23.40
2015,06,16,15,03,23.40
2015,06,16,15,04,23.40
2015,06,16,15,05,23.40
2015,06,16,15,06,23.50
2015,06,16,15,07,23.60
2015,06,16,15,08,23.60
2015,06,16,15,09,23.60
2015,06,16,15,10,23.70
2015,06,16,15,11,23.70
2015,06,16,15,12,23.70
2015,06,16,15,13,23.70
2015,06,16,15,14,23.70
2015,06,16,15,15,23.70
2015,06,16,15,16,23.80
2015,06,16,15,17,23.80
2015,06,16,15,18,23.80
2015,06,16,15,19,23.80
2015,06,16,15,20,23.70
2015,06,16,15,21,23.60
2015,06,16,15,22,23.60
2015,06,16,15,23,23.50
2015,06,16,15,24,23.50
2015,06,16,15,25,23.40
2015,06,16,15,26,23.40
2015,06,16,15,27,23.40
2015,06,16,15,28,23.50
2015,06,16,15,29,23.60
2015,06,16,15,30,23.60
2015,06,16,15,31,23.70
2015,06,16,15,32,23.70
2015,06,16,15,33,23.70
2015,06,16,15,34,23.70
2015,06,16,15,35,23.60
2015,06,16,15,36,23.60
2015,06,16,15,37,23.60
2015,06,16,15,38,23.70
2015,06,16,15,39,23.70
2015,06,16,15,40,23.80
2015,06,16,15,41,23.80
2015,06,16,15,42,23.80
2015,06,16,15,43,23.90
2015,06,16,15,44,23.90
2015,06,16,15,45,23.90
2015,06,16,15,46,23.90
2015,06,16,15,47,23.80
2015,06,16,15,48,23.80
2015,06,16,15,49,23.80
2015,06,16,15,50,23.80
2015,06,16,15,51,23.80
2015,06,16,15,52,23.90
2015,06,16,15,53,24.00
2015,06,16,15,54,24.10
2015,06,16,15,55,24.20
2015,06,16,15,56,24.20
2015,06,16,15,57,24.30
2015,06,16,15,58,24.30
2015,06,16,15,59,24.30
2015,06,16,16,00,24.30
2015,06,16,16,01,24.30
2015,06,16,16,02,24.30
2015,06,16,16,03,24.30
2015,06,16,16,04,24.30
2015,06,16,16,05,24.30
2015,06,16,16,06,24.30
2015,06,16,16,07,24.30
2015,06,16,16,08,24.20
2015,06,16,16,09,24.20
2015,06,16,16,10,24.20
2015,06,16,16,11,24.20
2015,06,16,16,12,24.20
2015,06,16,16,13,24.20
2015,06,16,16,14,24.20
2015,06,16,16,15,24.20
2015,06,16,16,16,24.20
2015,06,16,16,17,24.20
2015,06,16,16,18,24.20
2015,06,16,16,19,24.30
2015,06,16,16,20,24.30
2015,06,16,16,21,24.30
2015,06,16,16,22,24.40
2015,06,16,16,23,24.40
2015,06,16,16,24,24.40
2015,06,16,16,25,24.40
2015,06,16,16,26,24.40
2015,06,16,16,27,24.40
2015,06,16,16,28,24.50
2015,06,16,16,29,24.50
2015,06,16,16,30,24.40
2015,06,16,16,31,24.50
2015,06,16,16,32,24.50
2015,06,16,16,33,24.60
2015,06,16,16,34,24.70
2015,06,16,16,35,24.80
2015,06,16,16,36,24.80
2015,06,16,16,37,24.80
2015,06,16,16,38,24.80
2015,06,16,16,39,24.80
2015,06,16,16,40,24.70
2015,06,16,16,41,24.70
2015,06,16,16,42,24.80
2015,06,16,16,43,24.80
2015,06,16,16,44,24.80
2015,06,16,16,45,24.80
2015,06,16,16,46,24.90
2015,06,16,16,47,25.00
2015,06,16,16,48,25.00
2015,06,16,16,49,24.90
2015,06,16,16,50,24.90
2015,06,16,16,51,24.80
2015,06,16,16,52,24.80
2015,06,16,16,53,24.80
2015,06,16,16,54,24.80
2015,06,16,16,55,24.80
2015,06,16,16,56,24.70
2015,06,16,16,57,24.60
2015,06,16,16,58,24.60
2015,06,16,16,59,24.50
2015,06,16,17,00,24.40
2015,06,16,17,01,24.40
2015,06,16,17,02,24.40
2015,06,16,17,03,24.40
2015,06,16,17,04,24.40
2015,06,16,17,05,24.40
2015,06,16,17,06,24.40
2015,06,16,17,07,24.30
2015,06,16,17,08,24.10
2015,06,16,17,09,24.00
2015,06,16,17,10,23.90
2015,06,16,17,11,23.90
2015,06,16,17,12,23.90
2015,06,16,17,13,23.90
2015,06,16,17,14,23.80
2015,06,16,17,15,23.80
2015,06,16,17,16,23.90
2015,06,16,17,17,23.90
2015,06,16,17,18,23.90
2015,06,16,17,19,23.90
2015,06,16,17,20,23.90
2015,06,16,17,21,23.90
2015,06,16,17,22,23.90
2015,06,16,17,23,23.80
2015,06,16,17,24,23.80